VR2HK-13 Weather Reports


Display with metric or nautical units.
time (UTC)temp
F
wind
direction
speed
MPH
gust
MPH
rain 1hr
in
rain 24hr
in
rain mn
in
humidity
%
barometer
mb
20260508175534 76 269 7.0 20.0 0.00 4.32 0.00 87 1013.1
20260508175246 76 33 4.0 14.0 0.00 4.33 0.00 87 1013.2
20260508175034 76 276 5.0 26.0 0.00 4.35 0.00 87 1013.3
20260508174735 76 10 7.0 26.0 0.00 4.35 0.00 87 1013.2
20260508174534 76 46 11.0 23.0 0.00 4.35 0.00 87 1013.3
20260508174226 76 266 11.0 23.0 0.00 4.38 0.00 87 1013.1
20260508174033 76 56 7.0 15.0 0.00 4.38 0.00 87 1013.3
20260508173715 77 9 5.0 16.0 0.00 4.38 0.00 87 1013.2
20260508173534 77 56 3.0 17.0 0.00 4.39 0.00 87 1013.3
20260508173205 77 70 7.0 17.0 0.00 4.40 0.00 87 1013.3
20260508173034 77 360 3.0 11.0 0.00 4.40 0.00 87 1013.3
20260508172655 77 354 2.0 8.0 0.00 4.42 0.00 87 1013.3
20260508172534 77 276 2.0 8.0 0.00 4.44 0.00 87 1013.3
20260508172145 77 80 2.0 14.0 0.02 4.45 0.00 87 1013.3
20260508172033 77 56 6.0 14.0 0.03 4.45 0.00 87 1013.3
20260508171635 77 191 2.0 15.0 0.14 4.50 0.00 87 1013.2
20260508171534 77 11 9.0 15.0 0.14 4.50 0.00 87 1013.2
20260508171125 77 20 2.0 12.0 0.18 4.51 0.00 87 1013.1
20260508171033 77 27 7.0 12.0 0.18 4.52 0.00 87 1013.2
20260508170615 77 22 3.0 12.0 0.22 4.55 0.00 87 1013.1
20260508170534 77 66 6.0 12.0 0.22 4.55 0.00 87 1013.2
20260508170105 77 45 0.0 16.0 0.24 4.56 0.00 87 1013.2
20260508170033 77 39 2.0 16.0 0.28 4.57 0.00 86 1013.3
20260508165556 78 227 1.0 9.0 0.37 4.59 0.00 87 1013.3
20260508165534 78 284 2.0 9.0 0.37 4.59 0.00 86 1013.3
20260508165045 78 15 4.0 7.0 0.49 4.59 0.00 86 1013.3
20260508165033 78 22 3.0 7.0 0.49 4.59 0.00 86 1013.3
20260508164536 78 277 2.0 10.0 0.57 4.59 0.00 86 1013.4
20260508164534 78 250 2.0 10.0 0.57 4.59 0.00 86 1013.4
20260508164033 78 303 4.0 16.0 0.62 4.61 0.00 86 1013.4
20260508164025 78 294 4.0 16.0 0.62 4.61 0.00 86 1013.4
20260508163534 78 78 7.0 20.0 0.70 4.62 0.00 86 1013.5
20260508163515 78 8 8.0 20.0 0.70 4.62 0.00 86 1013.4
20260508163033 78 86 6.0 13.0 0.80 4.63 0.00 85 1013.5
20260508163005 78 16 5.0 13.0 0.81 4.63 0.00 85 1013.5
20260508162534 79 41 5.0 10.0 0.89 4.66 0.00 85 1013.6
20260508162454 79 34 1.0 6.0 0.90 4.68 0.00 85 1013.6
20260508162033 79 35 1.0 8.0 0.89 4.69 0.00 85 1013.6
20260508161945 79 39 1.0 8.0 0.88 4.68 0.00 85 1013.6
20260508161434 79 64 1.0 14.0 0.83 4.59 0.00 84 1013.6
20260508161033 79 278 3.0 13.0 0.87 4.59 0.00 84 1013.6
20260508160925 79 10 3.0 13.0 0.87 4.59 0.00 84 1013.5
20260508160534 79 59 4.0 14.0 0.89 4.63 0.00 84 1013.6
20260508160414 79 43 3.0 9.0 0.89 4.62 0.00 84 1013.6
20260508160034 79 243 6.0 9.0 0.94 4.58 0.00 84 1013.6
20260508155905 79 232 0.0 2.0 0.90 4.53 0.00 84 1013.7
20260508155534 78 26 0.0 6.0 0.89 4.53 0.00 84 1013.7
20260508155354 78 270 2.0 6.0 0.87 4.53 0.00 84 1013.7
20260508155033 79 157 1.0 6.0 0.83 4.45 0.00 84 1013.7
20260508154844 79 360 2.0 4.0 0.81 4.43 0.00 84 1013.8
20260508154533 79 270 0.0 15.0 0.79 4.39 0.00 84 1013.8
20260508154334 79 306 1.0 15.0 0.82 4.38 0.00 84 1013.8
20260508154033 79 256 3.0 10.0 0.82 4.37 0.00 84 1013.8
20260508153533 79 244 3.0 11.0 0.82 4.32 0.00 84 1013.8
20260508153314 79 268 5.0 8.0 0.92 4.32 0.00 84 1013.8
20260508153033 79 266 1.0 5.0 0.87 4.25 0.00 84 1013.9
20260508152805 79 295 1.0 4.0 0.85 4.20 0.00 84 1013.9
20260508152533 79 222 1.0 13.0 0.86 4.20 0.00 83 1013.9
20260508152254 79 72 5.0 17.0 0.89 4.18 0.00 83 1013.8
20260508152033 79 55 7.0 17.0 0.90 4.19 0.00 83 1013.8
20260508151745 79 232 5.0 7.0 0.94 4.17 0.00 83 1013.8
20260508151532 79 316 1.0 13.0 0.96 4.18 0.00 83 1013.9
20260508151234 79 328 6.0 13.0 0.94 4.13 0.00 83 1013.9
20260508151033 79 229 2.0 12.0 0.93 4.12 0.00 83 1013.8
20260508150724 80 350 4.0 8.0 0.94 4.10 0.00 83 1013.8
20260508150532 80 320 3.0 7.0 0.93 4.09 0.00 83 1013.9
20260508150214 80 308 2.0 6.0 0.98 4.05 0.00 83 1013.9
20260508150033 80 37 1.0 6.0 0.93 4.00 0.00 83 1013.9
20260508145704 80 23 2.0 6.0 0.93 4.04 0.00 83 1013.9
20260508145533 80 280 1.0 7.0 0.94 4.03 0.00 83 1013.9
20260508145153 80 244 4.0 7.0 0.93 4.01 0.00 82 1014.0
20260508145032 80 273 1.0 7.0 0.93 4.00 0.00 82 1014.0
20260508144644 80 180 3.0 5.0 0.94 4.04 0.00 82 1014.0
20260508144533 80 217 1.0 4.0 0.98 4.03 0.00 82 1014.0
20260508144134 80 146 1.0 8.0 0.93 3.96 0.00 82 1014.0
20260508144032 80 231 2.0 8.0 0.94 3.96 0.00 82 1014.0
20260508143624 80 238 1.0 5.0 0.96 3.88 0.00 81 1014.0
20260508143533 80 222 2.0 5.0 0.96 3.88 0.00 81 1014.0
20260508143032 80 258 1.0 5.0 0.95 3.77 0.00 81 1014.0
20260508142603 80 248 1.0 6.0 0.95 3.73 0.00 81 1014.0
20260508142532 80 230 1.0 6.0 0.95 3.73 0.00 81 1014.1
20260508142054 80 249 3.0 10.0 0.96 3.68 0.00 81 1014.0
20260508142032 80 242 2.0 11.0 0.96 3.68 0.00 81 1014.0
20260508141543 80 217 6.0 10.0 0.93 3.62 0.00 80 1014.0
20260508141532 80 223 5.0 10.0 0.93 3.62 0.00 80 1013.9
20260508141035 80 229 2.0 5.0 0.96 3.59 0.00 80 1013.9
20260508141033 80 201 2.0 5.0 0.96 3.59 0.00 80 1013.9
20260508140532 80 225 5.0 7.0 1.00 3.58 0.00 80 1013.9
20260508140032 80 262 2.0 5.0 0.96 3.55 0.00 80 1013.8
20260508140014 80 253 2.0 5.0 0.98 3.57 0.00 80 1013.9
20260508135532 80 245 2.0 6.0 1.02 3.54 0.00 80 1013.7
20260508135504 80 252 2.0 6.0 1.02 3.54 0.00 80 1013.7
20260508135032 80 222 1.0 4.0 1.03 3.53 0.00 80 1013.7
20260508134532 80 62 6.0 12.0 1.03 3.53 0.00 80 1013.6
20260508134444 80 352 4.0 11.0 1.05 3.53 0.00 80 1013.6
20260508134032 80 19 2.0 9.0 1.08 3.53 0.00 80 1013.6
20260508133933 80 274 2.0 7.0 1.08 3.52 0.00 80 1013.6
20260508133423 81 17 1.0 10.0 0.99 3.39 0.00 80 1013.5
20260508133032 80 289 5.0 10.0 1.03 3.41 0.00 80 1013.5
20260508132913 80 36 1.0 8.0 0.99 3.37 0.00 80 1013.4
20260508132531 80 71 3.0 8.0 0.98 3.38 0.00 81 1013.4
20260508132032 80 170 1.0 4.0 0.93 3.32 0.00 81 1013.4
20260508131853 80 189 1.0 3.0 0.96 3.34 0.00 81 1013.4
20260508131531 80 169 2.0 3.0 0.95 3.31 0.00 81 1013.4
20260508131343 80 180 1.0 3.0 0.94 3.29 0.00 81 1013.4
20260508131032 80 211 1.0 3.0 0.96 3.25 0.00 82 1013.5
20260508130833 80 190 2.0 4.0 0.94 3.22 0.00 82 1013.4
20260508130531 80 211 2.0 4.0 0.93 3.16 0.00 82 1013.3
20260508130323 80 213 1.0 4.0 0.94 3.14 0.00 82 1013.4
20260508130032 80 191 1.0 4.0 0.94 3.14 0.00 82 1013.4
20260508125813 80 188 2.0 4.0 0.92 3.11 0.00 82 1013.3
20260508125532 80 241 1.0 5.0 0.88 3.07 0.00 82 1013.3
20260508125305 80 200 1.0 5.0 0.93 3.07 0.00 82 1013.2
20260508125032 80 208 1.0 5.0 0.90 3.05 0.00 82 1013.2
20260508124753 80 208 1.0 4.0 0.92 3.01 0.00 82 1013.0
20260508124532 80 175 2.0 5.0 0.89 2.99 0.00 82 1013.0
20260508124243 80 194 2.0 4.0 0.87 2.94 0.00 82 1013.0
20260508124031 80 202 2.0 4.0 0.87 2.92 0.00 82 1013.0
20260508123733 80 172 1.0 4.0 0.85 2.89 0.00 82 1012.9
20260508123532 80 167 2.0 4.0 0.83 2.88 0.00 82 1012.9
20260508123221 80 170 2.0 4.0 0.80 2.82 0.00 82 1013.0
20260508123031 80 192 2.0 4.0 0.79 2.81 0.00 82 1013.0
20260508122713 80 201 2.0 4.0 0.82 2.82 0.00 81 1012.9
20260508122532 80 223 1.0 3.0 0.81 2.82 0.00 81 1012.8
20260508122202 80 180 1.0 4.0 0.83 2.82 0.00 81 1012.8
20260508122031 80 167 3.0 4.0 0.83 2.82 0.00 81 1012.8
20260508121653 80 138 1.0 4.0 0.85 2.80 0.00 80 1012.7
20260508121532 80 165 2.0 4.0 0.85 2.77 0.00 80 1012.7
20260508121142 80 191 2.0 5.0 0.82 2.76 0.00 80 1012.6
20260508121031 81 178 3.0 5.0 0.80 2.73 0.00 80 1012.5
20260508120633 81 190 2.0 4.0 0.76 2.74 0.00 80 1012.5
20260508120531 81 276 0.0 1.0 0.75 2.73 0.00 79 1012.4
20260508120122 80 15 1.0 1.0 0.72 2.66 0.00 80 1012.4
20260508120031 80 19 1.0 1.0 0.70 2.64 0.00 80 1012.4
20260508115613 80 263 0.0 2.0 0.70 2.61 0.00 80 1012.5
20260508115531 80 252 0.0 2.0 0.68 2.59 0.00 80 1012.4
20260508115102 80 260 1.0 2.0 0.67 2.57 0.00 80 1012.3
20260508115031 80 285 1.0 2.0 0.69 2.59 0.00 80 1012.3
20260508114552 80 259 1.0 2.0 0.66 2.54 0.00 80 1012.3
20260508114531 80 241 1.0 2.0 0.64 2.53 0.00 80 1012.3
20260508114041 80 237 1.0 4.0 0.63 2.49 0.00 80 1012.3
20260508114031 80 187 1.0 4.0 0.62 2.48 0.00 80 1012.3
20260508113533 80 129 2.0 5.0 0.59 2.48 0.00 80 1012.4
20260508113531 80 110 2.0 5.0 0.59 2.48 0.00 80 1012.4
20260508113031 80 222 3.0 6.0 0.56 2.43 0.00 80 1012.3
20260508113022 80 222 2.0 6.0 0.56 2.43 0.00 80 1012.3
20260508112531 80 233 4.0 6.0 0.57 2.46 0.00 80 1012.3
20260508112512 80 219 4.0 5.0 0.57 2.46 0.00 80 1012.2
20260508112031 80 219 0.0 4.0 0.53 2.38 0.00 80 1012.1
20260508112002 80 285 0.0 4.0 0.53 2.38 0.00 80 1012.1
20260508111531 80 205 2.0 7.0 0.49 2.34 0.00 81 1012.0
20260508111452 80 218 4.0 7.0 0.49 2.34 0.00 80 1012.0
20260508111031 80 204 2.0 5.0 0.51 2.31 0.00 80 1012.1
20260508110942 80 170 2.0 5.0 0.51 2.31 0.00 80 1012.1
20260508110530 80 208 2.0 5.0 0.50 2.33 0.00 79 1012.1
20260508110431 81 157 3.0 5.0 0.50 2.31 0.00 79 1012.1
20260508110031 81 235 3.0 7.0 0.50 2.31 0.00 79 1011.9
20260508105922 81 258 2.0 7.0 0.51 2.30 0.00 79 1011.9
20260508105531 81 227 3.0 5.0 0.49 2.28 0.00 78 1011.8
20260508105412 81 174 1.0 4.0 0.48 2.27 0.00 78 1011.8
20260508105031 81 243 1.0 2.0 0.49 2.25 0.00 78 1011.8
20260508104902 81 10 0.0 2.0 0.50 2.24 0.00 78 1011.8
20260508104531 81 351 1.0 2.0 0.53 2.23 0.00 78 1011.8
20260508104351 81 1 1.0 3.0 0.54 2.23 0.00 78 1011.8
20260508104030 81 277 1.0 4.0 0.56 2.22 0.00 78 1011.7
20260508103842 81 283 2.0 4.0 0.56 2.22 0.00 78 1011.7
20260508103531 81 290 1.0 2.0 0.61 2.21 0.00 78 1011.7
20260508103030 81 315 1.0 3.0 0.69 2.20 0.00 78 1011.7
20260508102822 81 328 1.0 6.0 0.68 2.16 0.00 78 1011.7
20260508102531 81 307 2.0 6.0 0.72 2.16 0.00 78 1011.6
20260508102030 81 242 1.0 4.0 0.75 2.14 0.00 78 1011.6
20260508101802 81 230 2.0 4.0 0.81 2.12 0.00 78 1011.6
20260508101530 81 208 2.0 4.0 0.81 2.10 0.00 78 1011.6
20260508101252 81 298 1.0 8.0 0.79 2.07 0.00 78 1011.5
20260508101030 81 220 3.0 8.0 0.83 2.04 0.00 78 1011.5
20260508100742 82 245 4.0 7.0 0.87 2.04 0.00 77 1011.4
20260508100530 82 259 5.0 7.0 0.92 2.03 0.00 77 1011.3
20260508100232 82 270 3.0 8.0 0.98 2.02 0.00 78 1011.2
20260508100030 82 252 3.0 9.0 1.01 1.99 0.00 77 1011.1
20260508095721 82 281 4.0 9.0 0.99 1.95 0.00 77 1011.1
20260508095530 82 240 6.0 8.0 0.99 1.95 0.00 77 1011.0
20260508095212 82 287 3.0 7.0 1.01 1.90 0.00 77 1011.0
20260508095030 82 265 1.0 7.0 1.00 1.89 0.00 77 1011.0
20260508094701 82 226 2.0 7.0 1.00 1.85 0.00 77 1011.0
20260508094530 82 228 3.0 7.0 0.99 1.83 0.00 77 1011.0
20260508094152 82 239 3.0 9.0 1.01 1.79 0.00 76 1011.0
20260508094030 82 111 2.0 9.0 1.01 1.76 0.00 76 1011.0
20260508093641 83 247 3.0 7.0 0.99 1.69 0.00 76 1011.0
20260508093530 83 264 1.0 7.0 1.00 1.69 0.00 76 1011.1
20260508093131 83 256 3.0 6.0 1.01 1.61 0.00 76 1011.1
20260508092621 83 243 2.0 5.0 1.02 1.52 0.00 75 1011.0
20260508092530 83 305 2.0 6.0 1.02 1.50 0.00 75 1011.1
20260508092111 83 283 4.0 8.0 1.01 1.43 0.00 75 1011.0
20260508092030 83 245 4.0 8.0 1.03 1.43 0.00 75 1011.0
20260508091601 84 220 2.0 6.0 1.05 1.36 0.00 75 1011.0
20260508091530 84 316 3.0 6.0 1.03 1.33 0.00 75 1011.0
20260508091051 84 43 1.0 8.0 1.00 1.32 0.00 75 1010.9
20260508091030 84 3 1.0 8.0 0.96 1.30 0.00 75 1010.9
20260508090541 84 37 5.0 9.0 1.03 1.23 0.00 75 1010.8
20260508090530 84 4 5.0 9.0 1.03 1.23 0.00 75 1010.7
20260508090033 83 198 1.0 5.0 1.01 1.11 0.00 75 1010.8
20260508090030 83 203 1.0 5.0 1.01 1.11 0.00 75 1010.8
20260508085530 83 201 2.0 6.0 1.07 1.09 0.00 76 1010.7
20260508085521 83 161 2.0 6.0 1.07 1.09 0.00 76 1010.7
20260508085030 83 188 3.0 7.0 1.08 1.03 0.00 75 1010.8
20260508085010 83 206 3.0 7.0 1.08 1.03 0.00 75 1010.8
20260508084530 83 186 2.0 6.0 1.05 0.96 0.00 75 1010.8
20260508084501 83 229 3.0 6.0 1.05 0.96 0.00 75 1010.8
20260508084030 83 306 2.0 5.0 1.03 0.88 0.00 75 1010.8
20260508083950 83 147 3.0 6.0 1.03 0.86 0.00 75 1010.8
20260508083529 84 224 4.0 6.0 1.07 0.84 0.00 75 1010.8
20260508083441 84 196 3.0 6.0 1.09 0.84 0.00 75 1010.8
20260508083029 83 360 1.0 5.0 1.01 0.73 0.00 75 1010.7
20260508082930 83 228 1.0 5.0 0.99 0.70 0.00 75 1010.7
20260508082529 83 229 3.0 5.0 0.98 0.65 0.00 76 1010.7
20260508082421 83 208 2.0 6.0 0.96 0.66 0.00 75 1010.7
20260508082029 83 270 3.0 7.0 0.96 0.60 0.00 75 1010.8
20260508081910 83 216 2.0 7.0 0.98 0.62 0.00 76 1010.8
20260508081530 83 237 2.0 6.0 0.95 0.53 0.00 76 1010.8
20260508081401 83 201 3.0 6.0 0.96 0.53 0.00 76 1010.8
20260508081029 83 190 3.0 6.0 1.01 0.55 0.00 76 1010.8
20260508080851 83 225 4.0 6.0 0.94 0.49 0.00 76 1010.8
20260508080529 83 173 3.0 7.0 0.86 0.44 0.00 76 1010.8
20260508080341 83 184 3.0 7.0 0.81 0.39 0.00 76 1010.8
20260508080029 83 163 3.0 6.0 0.80 0.37 0.00 76 1010.9
20260508075831 83 203 3.0 6.0 0.80 0.34 0.00 76 1010.9
20260508075529 83 179 3.0 6.0 0.79 0.32 0.00 76 1010.9
20260508075320 83 186 3.0 6.0 0.76 0.31 0.00 76 1010.9
20260508075029 83 146 4.0 8.0 0.75 0.27 0.00 76 1011.0
20260508074811 83 159 4.0 8.0 0.74 0.26 0.00 75 1010.9
20260508074530 83 185 4.0 8.0 0.74 0.27 0.00 75 1010.9
20260508074300 83 240 5.0 8.0 0.72 0.27 0.00 75 1011.0
20260508074029 83 225 4.0 9.0 0.68 0.22 0.00 75 1010.9
20260508073751 83 174 6.0 9.0 0.63 0.18 0.00 75 1011.0
20260508073528 83 238 5.0 10.0 0.62 0.15 0.00 75 1011.0
20260508073241 84 207 6.0 11.0 0.63 0.14 0.00 74 1011.0
20260508073029 84 163 5.0 11.0 0.63 0.12 0.00 74 1011.0
20260508072731 84 136 4.0 11.0 0.62 0.11 0.00 74 1011.0
20260508072529 84 227 4.0 11.0 0.61 0.09 0.00 73 1011.0
20260508072220 85 245 5.0 9.0 0.62 0.09 0.00 72 1011.0
20260508071711 86 261 5.0 11.0 0.55 0.03 0.00 71 1011.1
20260508071528 87 263 6.0 10.0 0.56 0.05 0.00 70 1011.0
20260508071200 88 224 3.0 7.0 0.54 0.05 0.00 71 1011.1
20260508071029 87 30 1.0 6.0 0.53 0.03 0.00 70 1011.1
20260508070651 87 25 4.0 7.0 0.56 0.06 0.00 70 1011.2
20260508070528 87 37 2.0 7.0 0.59 0.05 0.00 71 1011.1
20260508070140 87 352 3.0 7.0 0.60 0.06 0.00 71 1011.2
20260508070029 87 70 3.0 8.0 0.59 0.05 0.00 71 1011.3
20260508065529 87 62 5.0 10.0 0.56 0.05 0.00 71 1011.3
20260508065120 88 261 5.0 10.0 0.57 0.09 0.00 70 1011.4
20260508065029 88 246 4.0 10.0 0.56 0.07 0.00 71 1011.4
20260508064611 88 25 2.0 8.0 0.59 0.09 0.00 70 1011.4
20260508064528 87 17 1.0 8.0 0.57 0.08 0.00 71 1011.4
20260508064100 86 32 3.0 8.0 0.63 0.08 0.00 71 1011.4
20260508064029 86 249 4.0 8.0 0.63 0.08 0.00 71 1011.4
20260508063550 86 231 4.0 9.0 0.66 0.07 0.00 72 1011.5
20260508063528 86 257 4.0 10.0 0.66 0.07 0.00 72 1011.5
20260508063040 87 242 4.0 7.0 0.68 0.01 0.00 72 1011.6
20260508063028 87 256 3.0 7.0 0.68 0.01 0.00 72 1011.6
20260508062531 86 5 3.0 8.0 0.66 0.03 0.00 72 1011.7
20260508062529 86 43 3.0 8.0 0.66 0.03 0.00 72 1011.7
20260508062028 86 12 6.0 12.0 0.61 9.99 0.00 72 1011.7
20260508062020 86 54 5.0 12.0 0.61 9.99 0.00 72 1011.7
20260508061529 86 359 4.0 12.0 0.57 0.00 0.00 72 1011.7
20260508061510 86 307 3.0 12.0 0.57 0.00 0.00 72 1011.7
20260508061028 86 360 6.0 15.0 0.59 0.01 0.00 72 1011.7
20260508061000 86 335 5.0 15.0 0.59 0.01 0.00 72 1011.7
20260508060529 86 290 3.0 12.0 0.54 9.96 0.00 73 1011.7
20260508060450 86 2 2.0 12.0 0.54 9.96 0.00 73 1011.8
20260508060028 86 28 3.0 8.0 0.51 9.98 0.00 73 1011.8
20260508055939 86 234 4.0 10.0 0.51 9.98 0.00 73 1011.8
20260508055528 85 253 7.0 12.0 0.54 9.96 0.00 72 1011.8
20260508055430 85 247 6.0 12.0 0.54 9.95 0.00 72 1011.8
20260508055028 87 240 6.0 10.0 0.54 9.95 0.00 70 1011.8
20260508054919 88 240 7.0 10.0 0.55 9.95 0.00 70 1011.8
20260508054528 88 281 3.0 8.0 0.56 9.96 0.00 71 1011.8
20260508054410 88 345 4.0 8.0 0.54 9.95 0.00 71 1011.8
20260508054029 87 322 3.0 13.0 0.53 9.92 0.00 72 1011.8
20260508053859 86 334 4.0 13.0 0.53 9.89 0.00 72 1011.8
20260508053528 86 59 2.0 12.0 0.56 9.87 0.00 72 1011.8
20260508053349 86 337 3.0 12.0 0.53 9.85 0.00 72 1011.9
20260508053029 86 228 2.0 10.0 0.49 9.81 0.00 73 1012.0
20260508052839 86 95 5.0 10.0 0.49 9.81 0.00 72 1012.1
20260508052329 86 224 4.0 10.0 0.53 9.82 0.00 73 1012.1
20260508052028 86 213 4.0 10.0 0.50 9.85 0.00 73 1012.1
20260508051820 86 268 4.0 9.0 0.53 9.85 0.00 72 1012.1
20260508051528 86 217 6.0 11.0 0.56 9.83 0.00 72 1012.1
20260508051309 86 272 7.0 11.0 0.56 9.82 0.00 72 1012.1
20260508051028 86 243 7.0 11.0 0.56 9.79 0.00 71 1012.1
20260508050800 86 276 6.0 9.0 0.57 9.79 0.00 73 1012.2
20260508050528 85 229 5.0 7.0 0.61 9.79 0.00 74 1012.2
20260508050249 84 269 3.0 11.0 0.66 9.80 0.00 75 1012.2
20260508050028 84 259 5.0 11.0 0.70 9.80 0.00 75 1012.3
20260508045740 83 203 4.0 11.0 0.68 9.76 0.00 75 1012.2
20260508045527 83 229 7.0 11.0 0.68 9.74 0.00 75 1012.2
20260508045229 83 227 5.0 12.0 0.72 9.72 0.00 75 1012.3
20260508045028 83 225 5.0 12.0 0.73 9.72 0.00 75 1012.3
20260508044527 83 212 7.0 13.0 0.76 9.66 0.00 75 1012.4
20260508044209 83 243 8.0 13.0 0.81 9.66 0.00 75 1012.4
20260508044028 83 212 8.0 13.0 0.80 9.64 0.00 75 1012.4
20260508043700 84 210 7.0 12.0 0.77 9.63 0.00 74 1012.5
20260508043527 84 228 7.0 12.0 0.75 9.60 0.00 74 1012.6
20260508043149 85 204 7.0 10.0 0.79 9.59 0.00 73 1012.6
20260508043028 85 254 6.0 10.0 0.81 9.59 0.00 73 1012.6
20260508042639 84 271 4.0 8.0 0.83 9.56 0.00 74 1012.7
20260508042528 84 247 5.0 9.0 0.88 9.55 0.00 74 1012.7
20260508042128 84 236 5.0 10.0 0.94 9.54 0.00 74 1012.7
20260508042027 84 225 5.0 13.0 0.95 9.54 0.00 75 1012.7
20260508041619 83 198 8.0 13.0 0.99 9.49 0.00 75 1012.7
20260508041528 83 237 8.0 13.0 0.96 9.47 0.00 74 1012.7
20260508041108 83 223 4.0 12.0 1.02 9.43 0.00 76 1012.7
20260508041027 83 264 5.0 12.0 1.02 9.43 0.00 76 1012.7
20260508040559 83 252 8.0 14.0 1.02 9.38 0.00 76 1012.7
20260508040527 83 250 6.0 14.0 1.02 9.38 0.00 76 1012.7
20260508040049 83 236 7.0 15.0 0.95 9.28 0.00 76 1012.8
20260508040028 83 285 8.0 15.0 0.95 9.28 0.00 76 1012.7
20260508035527 83 221 6.0 13.0 1.03 9.24 0.00 76 1012.8
20260508035030 83 244 6.0 14.0 1.03 9.17 0.00 76 1012.8
20260508035028 83 242 6.0 14.0 1.03 9.17 0.00 76 1012.8
20260508034528 83 238 6.0 10.0 1.02 9.10 0.00 76 1012.8
20260508034519 83 259 5.0 10.0 1.02 9.10 0.00 76 1012.9
20260508034027 83 232 7.0 11.0 1.05 9.03 0.00 75 1012.9
20260508034009 83 238 7.0 11.0 1.03 9.02 0.00 75 1013.0
20260508033527 83 313 4.0 9.0 1.05 8.99 0.00 76 1013.0
20260508033457 83 253 4.0 9.0 1.07 8.98 0.00 76 1013.0
20260508033027 83 288 4.0 7.0 1.05 8.91 0.00 77 1013.1
20260508032949 83 266 3.0 7.0 1.06 8.90 0.00 77 1013.1
20260508032528 82 3 3.0 6.0 1.02 8.81 0.00 77 1013.1
20260508032439 82 29 3.0 6.0 1.00 8.77 0.00 77 1013.1
20260508032027 82 257 4.0 11.0 0.99 8.71 0.00 78 1013.2
20260508031928 82 278 5.0 11.0 0.95 8.68 0.00 77 1013.2
20260508031527 82 248 8.0 10.0 0.99 8.64 0.00 77 1013.2
20260508031419 82 234 6.0 10.0 1.05 8.61 0.00 77 1013.2
20260508030908 82 280 3.0 10.0 1.06 8.49 0.00 78 1013.3
20260508030527 82 266 6.0 8.0 1.06 8.46 0.00 78 1013.3
20260508030359 82 211 5.0 8.0 1.07 8.45 0.00 78 1013.3
20260508030027 82 284 1.0 9.0 1.08 8.46 0.00 78 1013.4
20260508025848 82 245 4.0 11.0 1.07 8.44 0.00 78 1013.4
20260508025527 82 8 2.0 11.0 1.05 8.35 0.00 78 1013.4
20260508025338 82 235 5.0 14.0 1.02 8.30 0.00 78 1013.4
20260508025027 82 198 7.0 14.0 1.06 8.26 0.00 77 1013.5
20260508024828 82 226 7.0 12.0 1.06 8.22 0.00 77 1013.4
20260508024527 82 241 6.0 11.0 1.08 8.19 0.00 77 1013.5
20260508024318 82 200 6.0 12.0 1.09 8.17 0.00 77 1013.5
20260508024026 82 221 5.0 12.0 1.05 8.11 0.00 76 1013.6
20260508023527 83 231 3.0 11.0 1.15 8.06 0.00 77 1013.7
20260508023258 82 248 7.0 11.0 1.15 7.99 0.00 77 1013.6
20260508023027 82 245 7.0 11.0 1.20 7.99 0.00 77 1013.7
20260508022748 82 218 6.0 10.0 1.16 7.94 0.00 77 1013.7
20260508022527 82 245 3.0 9.0 1.18 7.91 0.00 78 1013.8
20260508022238 81 220 7.0 12.0 1.18 7.88 0.00 78 1013.7
20260508022027 81 222 9.0 12.0 1.15 7.85 0.00 78 1013.7
20260508021728 81 213 5.0 10.0 1.11 7.79 0.00 77 1013.8
20260508021526 81 134 4.0 8.0 1.13 7.79 0.00 77 1013.9
20260508021218 81 113 2.0 13.0 0.99 7.61 0.00 78 1013.9
20260508021027 81 182 3.0 13.0 0.99 7.61 0.00 77 1013.9
20260508020708 82 191 6.0 11.0 1.00 7.55 0.00 77 1013.9
20260508020526 82 198 3.0 9.0 1.01 7.54 0.00 77 1013.9
20260508020158 82 260 5.0 8.0 1.02 7.52 0.00 78 1013.9
20260508020026 81 330 2.0 6.0 1.01 7.47 0.00 78 1013.9
20260508015648 81 178 3.0 7.0 1.01 7.39 0.00 79 1013.9
20260508015527 81 221 3.0 7.0 1.01 7.39 0.00 79 1013.9
20260508015137 81 197 4.0 8.0 0.94 7.32 0.00 78 1014.0
20260508015026 81 168 4.0 8.0 0.92 7.28 0.00 78 1014.1
20260508014628 81 258 4.0 8.0 0.88 7.21 0.00 78 1014.0
20260508014527 81 207 4.0 7.0 0.89 7.20 0.00 78 1014.0
20260508014117 81 199 4.0 8.0 0.87 7.16 0.00 78 1014.0
20260508014026 81 212 4.0 8.0 0.88 7.16 0.00 78 1014.0
20260508013608 81 201 3.0 6.0 0.74 7.01 0.00 78 1014.0
20260508013526 81 214 3.0 7.0 0.72 6.99 0.00 78 1014.0
20260508013026 80 219 4.0 7.0 0.62 6.92 0.00 78 1014.0
20260508012549 80 201 5.0 8.0 0.59 6.86 0.00 79 1013.9
20260508012037 80 203 4.0 8.0 0.56 6.83 0.00 79 1013.8
20260508012026 80 227 5.0 8.0 0.55 6.82 0.00 79 1013.8
20260508011529 80 213 4.0 8.0 0.50 6.77 0.00 79 1013.8
20260508011526 80 212 4.0 8.0 0.50 6.77 0.00 79 1013.8
20260508011026 80 192 4.0 6.0 0.49 6.74 0.00 78 1013.7
20260508011017 80 230 4.0 6.0 0.49 6.74 0.00 78 1013.7
20260508010526 80 184 3.0 6.0 0.42 6.66 0.00 78 1013.7
20260508010507 80 199 4.0 6.0 0.42 6.66 0.00 78 1013.7
20260508010026 80 180 3.0 5.0 0.36 6.57 0.00 78 1013.6
20260508005526 80 196 3.0 5.0 0.31 6.51 0.00 78 1013.7
20260508005026 80 193 3.0 6.0 0.31 6.49 0.00 78 1013.6
20260508004525 80 199 3.0 6.0 0.28 6.42 0.00 77 1013.6
20260508004026 81 200 4.0 6.0 0.23 6.37 0.00 77 1013.7
20260508003526 80 227 4.0 7.0 0.22 6.37 0.00 77 1013.7
20260508003027 80 207 4.0 7.0 0.22 6.36 0.00 78 1013.7
20260508002526 80 229 2.0 4.0 0.20 6.34 0.00 78 1013.6
20260508002025 80 200 3.0 4.0 0.18 6.33 0.00 79 1013.6
20260508001526 80 247 2.0 5.0 0.17 6.31 0.00 80 1013.5
20260508001025 80 235 2.0 5.0 0.18 6.30 0.00 80 1013.5
20260508000526 79 184 3.0 5.0 0.16 6.28 0.00 81 1013.5
20260508000026 79 234 3.0 5.0 0.15 6.25 0.00 81 1013.4
20260507235525 79 205 2.0 4.0 0.16 6.23 0.00 82 1013.5
20260507235026 79 213 2.0 5.0 0.14 6.22 0.00 82 1013.4
20260507234525 79 190 4.0 5.0 0.10 6.18 0.00 82 1013.4
20260507234025 78 190 2.0 4.0 0.09 6.17 0.00 82 1013.2
20260507233717 78 204 2.0 4.0 0.09 6.17 0.00 83 1013.2
20260507233526 78 195 2.0 4.0 0.09 6.17 0.00 83 1013.1
20260507233206 78 196 1.0 3.0 0.08 6.16 0.00 83 1013.2
20260507233025 78 187 2.0 3.0 0.08 6.16 0.00 83 1013.1
20260507232526 78 170 2.0 3.0 0.08 6.16 0.00 84 1013.1
20260507232146 77 164 2.0 5.0 0.08 6.16 0.00 84 1013.0
20260507232025 77 180 3.0 5.0 0.08 6.16 0.00 85 1013.0
20260507231525 77 186 2.0 4.0 0.09 6.16 0.00 85 1013.0
20260507231025 77 198 2.0 4.0 0.05 6.12 0.00 86 1013.0
20260507230525 77 157 2.0 4.0 0.05 6.12 0.00 86 1013.0
20260507230025 76 217 1.0 3.0 0.05 6.11 0.00 86 1012.9
20260507225525 76 180 1.0 3.0 0.02 6.08 0.00 86 1012.8
20260507225025 76 229 1.0 2.0 0.02 6.08 0.00 87 1012.7
20260507224525 76 178 1.0 2.0 0.02 6.08 0.00 87 1012.6
20260507224025 76 182 1.0 3.0 0.02 6.08 0.00 87 1012.5
20260507223025 76 61 0.0 1.0 0.02 6.08 0.00 87 1012.5
20260507222525 76 14 0.0 3.0 0.03 6.08 0.00 87 1012.5
20260507222025 76 169 1.0 2.0 0.04 6.08 0.00 87 1012.5
20260507221525 76 204 1.0 5.0 0.03 6.07 0.00 87 1012.5
20260507221024 76 236 1.0 5.0 0.04 6.07 0.00 87 1012.4
20260507220525 76 205 2.0 3.0 0.04 6.07 0.00 87 1012.4
20260507220024 76 229 1.0 2.0 0.03 6.05 0.00 87 1012.2
20260507215524 76 226 0.0 2.0 0.03 6.05 0.00 87 1012.2
20260507215025 76 153 1.0 2.0 0.04 6.05 0.00 87 1012.2
20260507214524 76 170 1.0 2.0 0.05 6.05 0.00 87 1012.2
20260507214025 76 164 1.0 3.0 0.05 6.05 0.00 87 1012.1
20260507213524 75 210 0.0 1.0 0.05 6.05 0.00 86 1012.0
20260507213025 76 42 0.0 1.0 0.05 6.05 0.00 86 1011.9
20260507212524 76 225 0.0 2.0 0.04 6.04 0.00 86 1011.9
20260507211524 76 303 0.0 2.0 0.05 6.03 0.00 86 1011.8
20260507211024 76 170 1.0 4.0 0.04 6.02 0.00 86 1011.7
20260507210525 76 205 1.0 3.0 0.05 6.02 0.00 86 1011.8
20260507210024 76 25 0.0 2.0 0.07 6.02 0.00 86 1011.8
20260507205524 76 141 0.0 1.0 0.07 6.02 0.00 86 1011.7
20260507205024 76 298 0.0 1.0 0.07 6.01 0.00 86 1011.6
20260507204524 76 9 0.0 1.0 0.07 5.99 0.00 86 1011.4
20260507204024 76 5 1.0 2.0 0.08 5.99 0.00 86 1011.4
20260507203524 76 107 1.0 3.0 0.08 5.99 0.00 85 1011.4
20260507203024 76 0 1.0 4.0 0.09 5.99 0.00 85 1011.4
20260507202524 76 22 0.0 4.0 0.14 5.99 0.00 85 1011.4
20260507202024 76 83 3.0 6.0 0.15 5.98 0.00 85 1011.3
20260507201523 76 328 1.0 4.0 0.16 5.97 0.00 85 1011.2
20260507201024 76 277 0.0 2.0 0.20 5.97 0.00 85 1011.2
20260507200524 76 56 0.0 4.0 0.22 5.96 0.00 86 1011.2
20260507200023 76 111 1.0 3.0 0.27 5.95 0.00 86 1011.2
20260507195524 76 309 0.0 2.0 0.28 5.95 0.00 85 1011.2
20260507195023 76 5 0.0 1.0 0.31 5.94 0.00 85 1011.2
20260507194524 76 26 0.0 1.0 0.34 5.92 0.00 85 1011.1
20260507194023 76 286 0.0 1.0 0.34 5.91 0.00 86 1011.2
20260507193523 76 326 0.0 3.0 0.35 5.91 0.00 85 1011.1
20260507193024 76 294 0.0 2.0 0.37 5.90 0.00 86 1011.1
20260507192523 76 225 1.0 4.0 0.35 5.85 0.00 86 1011.1
20260507192024 76 261 0.0 0.0 0.34 5.83 0.00 85 1011.2
20260507191523 76 229 0.0 2.0 0.35 5.81 0.00 85 1011.2
20260507191023 76 213 1.0 1.0 0.33 5.77 0.00 85 1011.2
20260507190523 76 183 1.0 2.0 0.33 5.74 0.00 85 1011.3
20260507190023 76 225 1.0 3.0 0.31 5.68 0.00 85 1011.3
20260507185523 76 203 2.0 4.0 0.31 5.66 0.00 85 1011.5
20260507185023 76 237 1.0 2.0 0.29 5.62 0.00 85 1011.4
20260507184523 76 33 0.0 1.0 0.28 5.58 0.00 85 1011.4
20260507184023 76 19 0.0 1.0 0.28 5.57 0.00 84 1011.5
20260507183523 76 46 0.0 1.0 0.29 5.56 0.00 84 1011.5
20260507183023 76 24 0.0 1.0 0.27 5.52 0.00 84 1011.6
20260507182523 76 268 0.0 1.0 0.28 5.50 0.00 85 1011.7
20260507182022 76 245 1.0 1.0 0.29 5.49 0.00 85 1011.8
20260507181523 76 225 1.0 2.0 0.28 5.46 0.00 85 1011.8
20260507181023 76 177 1.0 2.0 0.30 5.45 0.00 85 1011.8
20260507180523 76 166 1.0 2.0 0.28 5.42 0.00 85 1011.8
20260507180023 76 159 2.0 3.0 0.27 5.37 0.00 85 1011.9